timestamp,surface_pressure_avg,surface_temp_avg,battery_voltage,lat,long
2019-09-20 00:00:00+00:00,246.7231,4.45,12.97,47.84626,-54.09684
2019-09-20 00:10:00+00:00,248.7347,4.5,12.89,47.84626,-54.09684
2019-09-20 00:20:00+00:00,254.2964,4.5,12.97,47.84626,-54.09684
2019-09-20 00:30:00+00:00,262.7364,4.5,12.97,47.84626,-54.09684
2019-09-20 00:40:00+00:00,267.1397,4.5,12.97,47.84626,-54.09684
2019-09-20 00:50:00+00:00,273.8864,4.5,12.97,47.84626,-54.09684
2019-09-20 01:00:00+00:00,279.8547,4.62,12.89,47.84626,-54.09684
2019-09-20 01:10:00+00:00,281.9281,4.9,12.81,47.84626,-54.09684
2019-09-20 01:20:00+00:00,285.1614,5.1,12.97,47.84626,-54.09684
2019-09-20 01:30:00+00:00,295.4881,5.34,12.97,47.84626,-54.09684
2019-09-20 01:40:00+00:00,301.8247,5.58,12.97,47.84626,-54.09684
2019-09-20 01:50:00+00:00,303.3146,5.79,12.97,47.84626,-54.09684
2019-09-20 02:00:00+00:00,305.4847,5.9,12.89,47.84626,-54.09684
2019-09-20 02:10:00+00:00,312.9963,5.93,12.81,47.84626,-54.09684
2019-09-20 02:20:00+00:00,319.6829,5.9,12.89,47.84626,-54.09684
2019-09-20 02:30:00+00:00,316.3647,5.97,12.97,47.84626,-54.09684
2019-09-20 02:40:00+00:00,312.5379,6.04,12.97,47.84626,-54.09684
2019-09-20 02:50:00+00:00,314.9613,6.1,12.97,47.84626,-54.09684
2019-09-20 03:00:00+00:00,318.0346,5.94,12.89,47.84626,-54.09684
2019-09-20 03:10:00+00:00,313.7396,5.88,12.81,47.84626,-54.09684
2019-09-20 03:20:00+00:00,310.9431,6.17,12.89,47.84626,-54.09684
2019-09-20 03:30:00+00:00,312.4163,6.28,12.89,47.84626,-54.09684
2019-09-20 03:40:00+00:00,309.5179,6.3,12.97,47.84626,-54.09684
2019-09-20 03:50:00+00:00,303.5779,6.39,12.97,47.84626,-54.09684
2019-09-20 04:00:00+00:00,301.8948,6.4,12.89,47.84626,-54.09684
2019-09-20 04:10:00+00:00,303.9081,6.2,12.81,47.84626,-54.09684
2019-09-20 04:20:00+00:00,300.0797,5.8,12.89,47.84626,-54.09684
2019-09-20 04:30:00+00:00,295.0113,5.7,12.89,47.84626,-54.09684
2019-09-20 04:40:00+00:00,291.8281,5.7,12.97,47.84626,-54.09684
2019-09-20 04:50:00+00:00,288.313,5.86,12.97,47.84626,-54.09684
2019-09-20 05:00:00+00:00,283.243,5.9,12.89,47.84626,-54.09684
2019-09-20 05:10:00+00:00,277.4364,5.8,12.81,47.84626,-54.09684
2019-09-20 05:20:00+00:00,274.0364,5.76,12.89,47.84626,-54.09684
2019-09-20 05:30:00+00:00,269.3247,5.79,12.89,47.84626,-54.09684
2019-09-20 05:40:00+00:00,263.2697,5.86,12.89,47.84626,-54.09684
2019-09-20 05:50:00+00:00,251.7514,5.89,12.89,47.84626,-54.09684
2019-09-20 06:00:00+00:00,246.7548,5.95,12.81,47.84626,-54.09684
2019-09-20 06:10:00+00:00,243.6998,5.91,12.81,47.84626,-54.09684
2019-09-20 06:20:00+00:00,239.4431,5.8,12.89,47.84626,-54.09684
2019-09-20 06:30:00+00:00,231.6731,5.79,12.89,47.84626,-54.09684
2019-09-20 06:40:00+00:00,227.4281,5.85,12.89,47.84626,-54.09684
2019-09-20 06:50:00+00:00,221.8598,5.9,12.89,47.84626,-54.09684
2019-09-20 07:00:00+00:00,213.3514,6.0,12.81,47.84626,-54.09684
2019-09-20 07:10:00+00:00,204.7748,6.0,12.73,47.84626,-54.09684
2019-09-20 07:20:00+00:00,200.6414,6.0,12.81,47.84626,-54.09684
2019-09-20 07:30:00+00:00,196.4148,5.7,12.81,47.84626,-54.09684
2019-09-20 07:40:00+00:00,191.6681,5.6,12.89,47.84626,-54.09684
2019-09-20 07:50:00+00:00,190.6631,5.77,12.89,47.84626,-54.09684
2019-09-20 08:00:00+00:00,189.5548,5.94,12.81,47.84626,-54.09684
2019-09-20 08:10:00+00:00,186.308,6.05,12.73,47.84626,-54.09684
2019-09-20 08:20:00+00:00,186.9382,6.11,12.81,47.84626,-54.09684
2019-09-20 08:30:00+00:00,188.2698,6.2,12.81,47.84626,-54.09684
2019-09-20 08:40:00+00:00,186.3348,6.2,12.81,47.84626,-54.09684
2019-09-20 08:50:00+00:00,186.2781,6.2,12.81,47.84626,-54.09684
2019-09-20 09:00:00+00:00,191.3431,6.28,12.73,47.84626,-54.09684
2019-09-20 09:10:00+00:00,193.5365,6.3,12.73,47.84626,-54.09684
2019-09-20 09:20:00+00:00,193.8331,6.3,12.81,47.84626,-54.09684
2019-09-20 09:30:00+00:00,199.1548,6.35,12.81,47.84626,-54.09684
2019-09-20 09:40:00+00:00,204.1898,6.39,12.81,47.84626,-54.09684
2019-09-20 09:50:00+00:00,208.9681,6.4,12.89,47.84626,-54.09684
2019-09-20 10:00:00+00:00,217.1831,6.4,12.89,47.84626,-54.09684
2019-09-20 10:10:00+00:00,220.4998,6.41,12.89,47.84626,-54.09684
2019-09-20 10:20:00+00:00,223.9082,6.47,13.13,47.84626,-54.09684
2019-09-20 10:30:00+00:00,228.4781,6.49,13.44,47.84626,-54.09684
2019-09-20 10:40:00+00:00,235.8647,6.5,13.84,47.84626,-54.09684
2019-09-20 10:50:00+00:00,241.873,6.5,14.32,47.84626,-54.09684
2019-09-20 11:00:00+00:00,243.2631,6.5,14.56,47.84626,-54.09684
2019-09-20 11:10:00+00:00,243.8898,6.54,15.6,47.84626,-54.09684
2019-09-20 11:20:00+00:00,245.3148,6.6,16.39,47.84626,-54.09684
2019-09-20 11:30:00+00:00,246.4182,6.6,15.99,47.84626,-54.09684
2019-09-20 11:40:00+00:00,247.6297,6.6,16.55,47.84626,-54.09684
2019-09-20 11:50:00+00:00,251.3098,6.6,15.99,47.84626,-54.09684
2019-09-20 12:00:00+00:00,251.3882,6.6,15.35,47.84626,-54.09684
2019-09-20 12:10:00+00:00,252.8864,6.6,14.96,47.84626,-54.09684
2019-09-20 12:20:00+00:00,263.1581,6.6,15.35,47.84626,-54.09684
2019-09-20 12:30:00+00:00,271.0281,6.54,14.96,47.84626,-54.09684
2019-09-20 12:40:00+00:00,270.748,6.5,15.04,47.84626,-54.09684
2019-09-20 12:50:00+00:00,273.2581,6.5,15.04,47.84626,-54.09684
2019-09-20 13:00:00+00:00,284.2747,6.37,14.96,47.84626,-54.09684
2019-09-20 13:10:00+00:00,289.8997,6.36,14.88,47.84626,-54.09684
2019-09-20 13:20:00+00:00,292.6164,6.39,15.11,47.84626,-54.09684
2019-09-20 13:30:00+00:00,300.498,6.4,15.04,47.84626,-54.09684
2019-09-20 13:40:00+00:00,310.4897,6.4,14.72,47.84626,-54.09684
2019-09-20 13:50:00+00:00,310.3297,6.4,14.96,47.84626,-54.09684
2019-09-20 14:00:00+00:00,310.8431,6.49,14.72,47.84626,-54.09684
2019-09-20 14:10:00+00:00,317.6963,6.4,14.64,47.84626,-54.09684
2019-09-20 14:20:00+00:00,327.083,6.3,14.64,47.84626,-54.09684
2019-09-20 14:30:00+00:00,332.1596,6.27,14.56,47.84626,-54.09684
2019-09-20 14:40:00+00:00,334.0397,6.33,14.56,47.84626,-54.09684
2019-09-20 14:50:00+00:00,334.9547,6.38,14.56,47.84626,-54.09684
2019-09-20 15:00:00+00:00,339.9114,6.3,14.64,47.84626,-54.09684
2019-09-20 15:10:00+00:00,339.1945,6.3,14.56,47.84626,-54.09684
2019-09-20 15:20:00+00:00,337.0664,6.3,14.72,47.84626,-54.09684
2019-09-20 15:30:00+00:00,340.6213,6.44,14.56,47.84626,-54.09684
2019-09-20 15:40:00+00:00,341.913,6.5,14.56,47.84626,-54.09684
2019-09-20 15:50:00+00:00,338.6029,6.57,14.48,47.84626,-54.09684
2019-09-20 16:00:00+00:00,333.0314,6.54,14.32,47.84626,-54.09684
2019-09-20 16:10:00+00:00,335.8347,6.56,14.48,47.84626,-54.09684
2019-09-20 16:20:00+00:00,336.1179,6.6,14.56,47.84626,-54.09684
2019-09-20 16:30:00+00:00,329.803,6.64,14.4,47.84626,-54.09684
2019-09-20 16:40:00+00:00,324.5096,6.7,14.4,47.84626,-54.09684
2019-09-20 16:50:00+00:00,325.9898,6.76,14.4,47.84626,-54.09684
2019-09-20 17:00:00+00:00,325.3096,6.79,14.4,47.84626,-54.09684
2019-09-20 17:10:00+00:00,315.9597,6.81,14.48,47.84626,-54.09684
2019-09-20 17:20:00+00:00,312.1996,6.9,14.56,47.84626,-54.09684
2019-09-20 17:30:00+00:00,310.5864,6.9,14.4,47.84626,-54.09684
2019-09-20 17:40:00+00:00,304.198,6.93,14.4,47.84626,-54.09684
2019-09-20 17:50:00+00:00,294.1614,7.0,14.56,47.84626,-54.09684
2019-09-20 18:00:00+00:00,285.658,7.03,14.4,47.84626,-54.09684
2019-09-20 18:10:00+00:00,277.9865,7.15,14.32,47.84626,-54.09684
2019-09-20 18:20:00+00:00,272.9264,7.13,14.32,47.84626,-54.09684
2019-09-20 18:30:00+00:00,266.6614,7.1,14.24,47.84626,-54.09684
2019-09-20 18:40:00+00:00,257.1764,7.03,14.24,47.84626,-54.09684
2019-09-20 18:50:00+00:00,254.0048,7.0,14.16,47.84626,-54.09684
2019-09-20 19:00:00+00:00,251.9998,6.99,14.08,47.84626,-54.09684
2019-09-20 19:10:00+00:00,246.4397,6.9,14.0,47.84626,-54.09684
2019-09-20 19:20:00+00:00,236.4464,6.93,14.08,47.84626,-54.09684
2019-09-20 19:30:00+00:00,229.9064,6.95,14.08,47.84626,-54.09684
2019-09-20 19:40:00+00:00,226.9465,6.97,14.08,47.84626,-54.09684
2019-09-20 19:50:00+00:00,219.7398,7.0,14.0,47.84626,-54.09684
2019-09-20 20:00:00+00:00,213.1631,7.05,13.92,47.84626,-54.09684
2019-09-20 20:10:00+00:00,214.3582,7.1,13.76,47.84626,-54.09684
2019-09-20 20:20:00+00:00,213.9181,7.12,13.76,47.84626,-54.09684
2019-09-20 20:30:00+00:00,206.6664,7.19,13.76,47.84626,-54.09684
2019-09-20 20:40:00+00:00,206.6181,7.2,13.76,47.84626,-54.09684
2019-09-20 20:50:00+00:00,216.7981,7.22,13.68,47.84626,-54.09684
2019-09-20 21:00:00+00:00,217.4164,7.25,13.6,47.84626,-54.09684
2019-09-20 21:10:00+00:00,211.308,7.3,13.44,47.84626,-54.09684
2019-09-20 21:20:00+00:00,213.7614,7.3,13.44,47.84626,-54.09684
2019-09-20 21:30:00+00:00,218.6397,7.4,13.37,47.84626,-54.09684
2019-09-20 21:40:00+00:00,219.4781,7.59,13.37,47.84626,-54.09684
2019-09-20 21:50:00+00:00,219.8348,7.72,13.29,47.84626,-54.09684
2019-09-20 22:00:00+00:00,224.1397,7.83,13.21,47.84626,-54.09684
2019-09-20 22:10:00+00:00,228.3614,7.99,13.05,47.84626,-54.09684
2019-09-20 22:20:00+00:00,229.9582,8.2,13.05,47.84626,-54.09684
2019-09-20 22:30:00+00:00,231.5198,8.36,13.05,47.84626,-54.09684
2019-09-20 22:40:00+00:00,235.9731,8.44,13.05,47.84626,-54.09684
2019-09-20 22:50:00+00:00,239.9214,8.54,13.05,47.84626,-54.09684
2019-09-20 23:00:00+00:00,238.7181,8.67,12.97,47.84626,-54.09684
2019-09-20 23:10:00+00:00,237.9115,8.7,12.89,47.84626,-54.09684
2019-09-20 23:20:00+00:00,242.0764,8.7,12.97,47.84626,-54.09684
2019-09-20 23:30:00+00:00,245.5264,8.68,12.97,47.84626,-54.09684
2019-09-20 23:40:00+00:00,244.1298,8.6,12.97,47.84626,-54.09684
2019-09-20 23:50:00+00:00,248.7414,8.54,12.97,47.84626,-54.09684
